User: anonymous   Login
Location: Clarks Summit,Pa.
(41.5000°N, 75.6000°W)
Time: 14:03:35
(UTC-04:00)
Language:

Tiangong 2 - Orbit

View from above orbital plane
View from above orbital plane
View from above satellite
View from above satellite

Ground track
Ground track

The orbit data is extracted from the following two-line orbital elements,

1 41765U 16057A   19199.27949785  .00002417  00000-0  31377-4 0  9991
2 41765  42.7827 141.2054 0006387 121.8473  37.8022 15.61916189161908
Epoch (UTC): 18 July 2019 06:42:28
Eccentricity: 0.0006387
inclination: 42.7827°
perigee height: 378 km
apogee height: 386 km
right ascension of ascending node: 141.2054°
argument of perigee: 121.8473°
revolutions per day: 15.61916189
mean anomaly at epoch: 37.8022°
orbit number at epoch: 16190

The dashed part of the orbit path shows where the satellite is in the earth's shadow,  

DLR